Regional Weather Roundup
Issued by NWS Charleston, SC

Current Version | Previous Version | Graphics & Text | Print | Product List | Glossary On
Versions: 1 2 3 4 5 6 7 8 9 10 11 12 13 14 15 16 17 18 19 20 21 22 23 24 25 26 27 28 29 30 31 32 33 34 35 36 37 38 39 40 41 42 43 44 45 46 47 48 49 50
000
ASUS42 KCHS 270725
RWRCHS

REGIONAL WEATHER ROUNDUP
NATIONAL WEATHER SERVICE CHARLESTON SC
200 AM EST SAT DEC 27 2014

NOTE: "FAIR" INDICATES FEW OR NO CLOUDS BELOW 12,000 FEET WITH NO
SIGNIFICANT WEATHER AND/OR OBSTRUCTIONS TO VISIBILITY.

NOT ALL STATIONS ARE QUALITY CONTROLLED BY THE NATIONAL
WEATHER SERVICE. USE DATA WITH CAUTION...ESPECIALLY
DEWPOINT OBSERVATIONS.

SCZ027-030-031-034>040-042>050-270800-
...SOUTHEAST SOUTH CAROLINA...

CITY           SKY/WX    TMP DP  RH WIND       PRES   REMARKS
N CHARLESTON   PTCLDY    43  42  97 CALM      30.30S
WATERFRONT PRK   N/A     50 N/A N/A N6          N/A
MOUNT PLEASANT FAIR      43  43 100 CALM      30.30S
PINOPOLIS        N/A     52  48  87 CALM      30.22F
MONCKS CORNER  FAIR      41  37  87 CALM      30.29S FOG
SUMMERVILLE    FAIR      39  39 100 CALM      30.30F
BEAUFORT MCAS  CLEAR     45  43  93 CALM      30.29F
BEAUFORT ARPT  FAIR      46  46 100 CALM      30.29S FOG
HILTON HEAD IS CLEAR     46  46 100 N3        30.30S
WALTERBORO     SUNNY     39 N/A N/A CALM      30.30F
ALLENDALE      FAIR      39  39 100 CALM      30.29S

...SOUTHERN MIDLANDS AND PEE DEE...

CITY           SKY/WX    TMP DP  RH WIND       PRES   REMARKS
GEORGETOWN     NOT AVBL
KINGSTREE      NOT AVBL
ORANGEBURG     CLEAR     36  34  92 CALM      30.29F
BARNWELL         N/A     34  34 100 CALM      30.30S
AIKEN          FAIR      34  34 100 CALM      30.32R
MANNING        FAIR      36 N/A N/A CALM      30.29S
COLUMBIA       CLEAR     33  30  88 CALM      30.30S
SUMTER         CLEAR     36  34  93 CALM      30.28S
FLORENCE       PTCLDY    37  34  89 CALM      30.29F
MYRTLE BEACH   CLEAR     39  37  93 CALM      30.30
N MYRTLE BEACH CLEAR     37  36  96 CALM      30.30F FOG

$$

GAZ063-065-086>088-099>101-113>116-118-119-134>141-150-270800-
...SOUTHEAST GEORGIA...

CITY           SKY/WX    TMP DP  RH WIND       PRES   REMARKS
SAVANNAH ARPT  CLEAR     43  43 100 N3        30.29S
HUNTER AAF     CLEAR     46  46 100 NE2       30.26F
FORT STEWART   CLEAR     42  40  94 CALM      30.27F
STATESBORO     CLEAR     36  36 100 CALM      30.28F
SYLVANIA       SUNNY     38  38 100 CALM      30.29S
CLAXTON        FAIR      39  39 100 CALM      30.28F

...CSRA...CENTRAL AND FAR SOUTHEAST GEORGIA...

CITY           SKY/WX    TMP DP  RH WIND       PRES   REMARKS
THOMSON        CLEAR     32  32 100 CALM      30.34S
AUGUSTA-BUSH   PTCLDY    32  31  96 CALM      30.30S FOG
AUGUSTA-DANIEL CLEAR     42  38  85 CALM      30.29S
SWAINSBORO     FAIR      39  39 100 CALM      30.28F
VIDALIA        CLEAR     41  41 100 CALM      30.27F
EASTMAN        FAIR      36  36 100 CALM      30.31R FOG
HAZLEHURST     FAIR      46  44  95 E5        30.26F
ALMA           CLEAR     41  40  96 CALM      30.27F FOG
WAYCROSS       CLEAR     48  47  98 CALM      30.26F
JESUP          FAIR      45  45 100 CALM      30.27F
BAXLEY         FAIR      43  41  93 CALM      30.27S
BRUNSWICK      MOCLDY    52  48  87 CALM      30.27F
SAINT SIMONS   MOCLDY    56  49  77 NE7       30.26F

$$

SCZ027-028-034-036>038-045-046-048>050-GAZ119-141-270800-
...LAKE AND SUPPLEMENTAL COASTAL OBSERVATIONS...

STATION/POSITION TIME  TEMP    WIND        PRES    WAVE   SWELL
                       AIR SEA DIR/SP/G            HT/PER HT/PER/DIR
                 (UTC) (F)     (DEG/KT/KT) (MB)    (FT/S) (FT/S/D)
UPR LAKE MARION  NOT AVBL
WINYAH BAY       0700   44     310/  3     1025.0S
LAKE MURRAY      0600   42        CALM     1025.1F
ACE BASIN NERRS  0700   44        CALM     1025.0S
FORT PULASKI     0700   51 56  330/  3/  4 1025.9S
SAPELO ISLAND    0700   53     350/  3     1025.0S

$$

ANZ835-935-AMZ111-154-330-350-352-354-370-450-454-472-270800-
...C-MAN AND BUOY OBSERVATIONS...

STATION/POSITION TIME  TEMP    WIND        PRES    WAVE   SWELL
                       AIR SEA DIR/SP/G            HT/PER HT/PER/DIR
                 (UTC) (F)     (DEG/KT/KT) (MB)    (FT/S) (FT/S/D)
BUOY 41004       0700   64 74   10/ 10/ 12 1024.9R   2/ 8   2/ 8
BUOY 41008       0700   59 58   20/ 10/ 12 1024.6F   2/ 9   2/100/ 9
FOLLY BEACH CMAN 0700   53      10/  5/  6 1026.0F
CAPERS NEARSHORE 0600   54      30/  8/ 10   N/A
FRIPP NEARSHORE  NOT AVBL


STATION/POSITION TIME  TEMP    WIND        PRES    WAVE   SWELL
                       AIR SEA DIR/SP/G            HT/PER HT/PER/DIR
                 (UTC) (F)     (DEG/KT/KT) (MB)    (FT/S) (FT/S/D)
5E ST. MARYS GA  0700      61                N/A     3/ 5
FRYING PAN BUOY  0700   60 69   10/  6/  8 1026.4R   2/13   2/120/13
BUOY 41025       0700   56                 1026.1R   3/12
CAPE LOOKOUT NC  0700   53     340/  3/  3 1025.9S
BUOY 41002       0650   67 74   70/  6/ 10 1025.5R   3/13   3/ 60/13
BUOY 41010       0700   74 77   90/ 12/ 14 1022.4F   3/ 8   2/ 90/ 8
ST AUGUSTINE FL  0700   62     350/ 13/ 14 1024.0F


$$



USA.gov is the U.S. government's official web portal to all federal, state and local government web resources and services.